TimeEET,TemperatureF,Dew PointF,Humidity,Sea Level PressureIn,VisibilityMPH,Wind Direction,Wind SpeedMPH,Gust SpeedMPH,PrecipitationIn,Events,Conditions,WindDirDegrees,DateUTC
5:20 AM,62.6,60.8,94,29.71,4.3,SSW,19.6,31.1,N/A,Rain-Thunderstorm,Light Thunderstorms and Rain,200,2012-10-29 03:20:00
5:50 AM,62.6,60.8,94,29.68,5.0,SSW,26.5,-,N/A,Rain-Thunderstorm,Light Thunderstorms and Rain,210,2012-10-29 03:50:00
6:20 AM,62.6,60.8,94,29.68,6.2,West,17.3,-,N/A,,Overcast,270,2012-10-29 04:20:00
6:50 AM,60.8,59.0,94,29.71,6.2,WNW,9.2,-,N/A,Rain,Light Rain,300,2012-10-29 04:50:00
7:20 AM,60.8,59.0,94,29.68,5.0,West,9.2,-,N/A,Rain,Light Rain,260,2012-10-29 05:20:00
7:50 AM,62.6,60.8,94,29.68,6.2,SSW,13.8,-,N/A,,Overcast,200,2012-10-29 05:50:00
8:20 AM,62.6,60.8,94,29.68,6.2,SSW,13.8,-,N/A,,Overcast,200,2012-10-29 06:20:00
8:50 AM,64.4,62.6,94,29.68,6.2,SW,17.3,-,N/A,,Overcast,220,2012-10-29 06:50:00
9:20 AM,64.4,62.6,94,29.68,6.2,SW,11.5,-,N/A,,Overcast,220,2012-10-29 07:20:00
9:50 AM,66.2,62.6,88,29.68,6.2,SSW,11.5,-,N/A,,Overcast,210,2012-10-29 07:50:00
10:20 AM,66.2,62.6,88,29.68,6.2,SSW,11.5,-,N/A,,Overcast,210,2012-10-29 08:20:00
10:50 AM,66.2,62.6,88,29.68,6.2,South,12.7,-,N/A,,Overcast,190,2012-10-29 08:50:00
11:20 AM,66.2,62.6,88,29.68,6.2,SSW,12.7,-,N/A,,Overcast,210,2012-10-29 09:20:00
11:50 AM,68.0,62.6,83,29.65,6.2,SSW,17.3,-,N/A,,Overcast,210,2012-10-29 09:50:00
12:20 PM,68.0,62.6,83,29.65,6.2,SSW,16.1,-,N/A,,Overcast,210,2012-10-29 10:20:00
12:50 PM,68.0,62.6,83,29.65,6.2,South,21.9,-,N/A,,Overcast,190,2012-10-29 10:50:00
1:20 PM,68.0,62.6,83,29.65,6.2,South,21.9,-,N/A,,Overcast,190,2012-10-29 11:20:00
1:50 PM,69.8,60.8,73,29.59,6.2,SSW,19.6,-,N/A,,Overcast,200,2012-10-29 11:50:00
2:20 PM,69.8,60.8,73,29.59,6.2,SSW,19.6,-,N/A,,Overcast,200,2012-10-29 12:20:00
2:50 PM,71.6,62.6,73,29.59,6.2,South,15.0,-,N/A,,Overcast,190,2012-10-29 12:50:00
3:20 PM,71.6,62.6,73,29.59,6.2,South,15.0,-,N/A,,Overcast,190,2012-10-29 13:20:00
3:50 PM,71.6,62.6,73,29.59,6.2,South,5.8,-,N/A,,Mostly Cloudy,180,2012-10-29 13:50:00
4:20 PM,71.6,62.6,73,29.59,6.2,South,5.8,-,N/A,,Mostly Cloudy,180,2012-10-29 14:20:00
4:50 PM,71.6,60.8,69,29.59,6.2,South,6.9,-,N/A,,Mostly Cloudy,190,2012-10-29 14:50:00
5:20 PM,69.8,60.8,73,29.59,6.2,South,6.9,-,N/A,,Mostly Cloudy,190,2012-10-29 15:20:00
5:50 PM,68.0,60.8,78,29.56,6.2,SE,4.6,-,N/A,,Mostly Cloudy,140,2012-10-29 15:50:00
6:20 PM,68.0,60.8,78,29.56,6.2,SE,4.6,-,N/A,,Mostly Cloudy,140,2012-10-29 16:20:00
6:50 PM,66.2,59.0,78,29.56,6.2,Calm,Calm,-,N/A,,Mostly Cloudy,0,2012-10-29 16:50:00
7:20 PM,66.2,59.0,78,29.56,6.2,Calm,Calm,-,N/A,,Mostly Cloudy,0,2012-10-29 17:20:00
7:50 PM,68.0,60.8,78,29.56,6.2,South,11.5,-,N/A,,Scattered Clouds,190,2012-10-29 17:50:00